STARLINK-3898 (52458 NORAD) Tracking and Keplerian Element Data

This shows tracking and keplerian element data for the satellite.

Feedback or suggestion? Click here.




ElementValue
Catalog52458
NameSTARLINK-3898
Epoch Orbit130
Epoch Day167.08334491
Epoch Year2022
RAAN68.1189
Inclination53.2175
Eccentricity0.0001648
Argument of Perigee45.3417
Mean Anonmoly37.3876
Mean Motion15.39249314
Decay Rate-0.0070258
L11 52458U 22049H 22167.08334491 -.00702580 00000+0 -19203-1 0 9990
L22 52458 53.2175 68.1189 0001648 45.3417 37.3876 15.39249314 1304

Live tracking and technical data element details for STARLINK-3898 (NORAD 52458). STARLINK-3898 can be tracked NOW for your location showing map with azimuth and elevation plus other details from your city location.

Track the satellite on the map from your city or location and see movement details for azimuth, elevation, latitude, longitude, range, height, and movement on the map or in text.







IsCatalogInMostPopularTable: catalog: 52458, numindb: 1
Update: records affected: 1



GetName: 52458 STARLINK-3898

Hit Count: updated at: Sat, 25 Jun 2022 05:17:28 GMT